{"data":{"norad_id":2866,"intl_designator":"1967-066E","name":"LES-5","alt_names":[],"object_type":"PAYLOAD","status":"ACTIVE","operator":null,"country":"US","launch_date":"1967-07-01","launch_site_code":"AFETR","launch_vehicle":null,"mission":null,"orbit_class":"UNKNOWN","rcs_meters":2.5562,"size_class":null,"mass_kg":null,"dimensions":null,"purposes":[],"wikipedia_slug":null,"has_3d_model":false,"image_url":null,"decayed_at":null,"tle_current":{"epoch":"2026-05-25T01:51:40.821120Z","epoch_age_seconds":68403,"freshness":"FRESH","line1":"1 02866U 67066E   26145.07755580 -.00000065  00000+0  00000+0 0  9992","line2":"2 02866   2.5705  97.0113 0052921 213.5061 284.3126  1.09425424130787","mean_motion":1.09425424,"eccentricity":0.0052921,"inclination_deg":2.5705,"raan_deg":97.0113,"arg_perigee_deg":213.5061,"mean_anomaly_deg":284.3126,"bstar":0,"rev_number":13078,"period_min":1315.9647432575,"perigee_km":33190.575237955,"apogee_km":33611.606541787,"semimajor_km":39779.227889871,"source":"CELESTRAK","updated_at":"2026-05-25T13:37:54.954375Z"}}}